+ View the NASA Portal
+ Center for Near-Earth Object Studies
IMPORTANT:
The SSD Announcement email list is now available. Major changes are coming in the near future, including possible hostname and/or URL changes. To be notified of such changes, subscribe to this email list.
Please visit
this page
for more details.
Don't show this message again
JPL Small-Body Database Browser
Search:
[
help
]
266622 Malna (2008 QO3)
Classification:
Outer Main-belt Asteroid
SPK-ID:
2266622
[
Ephemeris
|
Orbit Diagram
|
Orbital Elements
|
Mission Design
|
Physical Parameters
|
Discovery Circumstances
|
Close-Approach Data
]
[ show orbit diagram ]
Orbital Elements at Epoch 2458600.5 (2019-Apr-27.0) TDB
Reference:
JPL 11
(heliocentric ecliptic J2000)
Element
Value
Uncertainty (1-sigma)
Units
e
.0789429269139226
7.5022e-08
a
3.240714217428569
5.7302e-08
au
q
2.984882751813196
2.4299e-07
au
i
3.300788743401305
9.3858e-06
deg
node
346.2540227816169
0.00011824
deg
peri
47.68088127381186
0.00013438
deg
M
250.3112544340997
6.3232e-05
deg
t
p
2459249.760672922796
(2021-Feb-04.26067292)
0.00038062
TDB
period
2130.882626529634
5.83
5.6517e-05
1.547e-07
d
yr
n
.1689440776877973
4.4809e-09
deg/d
Q
3.496545683043943
6.1826e-08
au
Orbit Determination Parameters
# obs. used (total)
122
data-arc span
5792 days (15.86 yr)
first obs. used
2002-08-08
last obs. used
2018-06-17
planetary ephem.
DE431
SB-pert. ephem.
SB431-N16
condition code
0
norm. resid. RMS
.68874
source
ORB
producer
Otto Matic
solution date
2019-Jul-14 11:06:45
Additional Information
Earth MOID
= 1.99156 au
Jupiter MOID
= 1.88695 au
T_jup
= 3.176
[ show covariance matrix ]
[
Ephemeris
|
Orbit Diagram
|
Orbital Elements
|
Mission Design
|
Physical Parameters
|
Discovery Circumstances
|
Close-Approach Data
]
Physical Parameter Table
Parameter
Symbol
Value
Units
Sigma
Reference
Notes
absolute magnitude
H
16.3
n/a
MPO446349
266622 Málna
Discovered 2008 Aug. 24 by K. Sárneczky at Piszkesteto.
Szofia Málna Sárneczky (b. 2010) is the daughter of the discoverer.
NOTE: some special characters may not display properly (any characters within {} are an attempt to place the proper accent above a character)
Reference:
20121228/MPCPages.arc
Last Updated:
2013-01-02
[ show close-approach data ]
Alternate Designations
2008 QO3
= 2003 XH23
[
Ephemeris
|
Orbit Diagram
|
Orbital Elements
|
Mission Design
|
Physical Parameters
|
Discovery Circumstances
|
Close-Approach Data
]
2019-Dec-07 19:43 UT
(server date/time)
Site Manager:
Ryan S. Park
Webmaster
:
Alan B. Chamberlin